Tracking 21470 objects as of 25-Sep-2020
HD Live streaming from Space Station
objects crossing your sky now

NATO 3A

Track NATO 3A now!
NATO 3A is classified as:


NORAD ID: 8808
Int'l Code: 1976-035A
Perigee: 35,819.7 km
Apogee: 36,013.6 km
Inclination: 9.7 °
Period: 1,442.4 minutes
Semi major axis: 42287 km
RCS: 7.2313 m2 (large)
Launch date: April 22, 1976
Source: North Atlantic Treaty Organization (NATO)
Launch site: AIR FORCE EASTERN TEST RANGE (AFETR)
aabbcc
Your satellite tracking list
Your tracking list is empty




NASA's NSSDC Master Catalog

Two Line Element Set (TLE):
1  8808U 76035A   20268.70052628 +.00000036 +00000-0 +00000-0 0  9992
2  8808 009.6556 314.0672 0022937 272.7843 095.8827 00.99834968726398
Source of the keplerian elements: AFSPC